Probability
0 0 0 0 0 0 0 0 0 0 0 0 0 0 0 0 0 0 0 0 0 0 0 0 0 0 0 0 0 0 0 0 0 0 0 0 0 0 0 0 0 0 0
0 0 0 0 0 0 0 0 0 0 0 0 0 0 0 0 0 0 0 0 0 0 0 0 0 0 0 0 0 0 0 0 0 0 0 0 0 0 0 0 0 0 0
0 0 0 0 0 0 0 0 0 0 0 0 0 0 0 0 0 0 0 0 0 0 0 0 0 0 0 0 0 0 0 0 0 0 0 0 0 0 0 0 0 0 0
0 0 0 0 0 0 0 0 0 0 0 0 0 0 0 0 0 0 0 0 0 0 0 0 0 0 0 0 0 0 0 0 0 0 0 0 0 0 0 0 0 0 0
0 0 0 0 0 0 0 0 0 0 0 0 0 0 0 0 0 0 0 0 0 0 0 0 0 0 0 0 0 0 0 0 0 0 0 0 0 0 0 0 0 0 0
0 0 0 0 0 0 0 0 0 0 0 0 0 0 0 0 0 0 0 0 0 0 0 0 0 0 0 0 0 0 0 0 0 0 0 0 0 0 0 0 0 0 0
0 0 0 0 0 0 0 0 0 0 0 0 0 0 0 0 0 0 0 0 0 0 0 0 0 0 0 0 0 0 0 0 0 0 0 0 0 0 0 0 0 0 0
0 0 0 0 0 0 0 0 0 0 0 0 0 0 0 0 0 0 0 0 0 0 0 0 0 0 0 0 0 0 0 0 0 0 0 0 0 0 0 0 0 0 0
0 0 0 0 0 0 0 0 0 0 0 0 0 0 0 0 0 0 0 0 0 0 0 0 0 0 0 0 0 0 0 0 0 0 0 0 0 0 0 0 0 0 0
0 0 0 0 0 0 0 0 0 0 0 0 0 0 0 0 0 0 0 0 0 0 0 0 0 0 0 0 0 0 0 0 0 0 0 0 0 0 0 0 0 0 0
0 0 0 0 0 0 0 0 0 0 0 0 0 0 0 0 0 0 0 0 0 0 0 0 0 0 0 0 0 0 0 0 0 0 0 0 0 0 0 0 0 0 0
0 0 0 0 0 0 0 0 0 0 0 0 0 0 0 0 0 0 0 0 0 0 0 0 0 0 0 0 0 0 0 0 0 0 0 0 0 0 0 0 0 0 0
0 0 0 0 0 0 0 0 0 0 0 0 0 0 0 0 0 0 0 0 0 0 0 0 0 0 0 0 0 0 0 0 0 0 0 0 0 0 0 0 0 0 0
0 0 0 0 0 0 0 0 0 0 0 0 0 0 0 0 0 0 0 0 0 0 0 0 0 0 0 0 0 0 0 0 0 0 0 0 0 0 0 0 0 0 0
0 0 0 0 0 0 0 0 0 0 0 0 0 0 0 0 0 0 0 0 0 0 0 0 0 0 0 0 0 0 0 0 0 0 0 0 0 0 0 0 0 0 0
0 0 0 0 0 0 0 0 0 0 0 0 0 0 0 0 0 0 0 0 0 0 0 0 0 0 0 0 0 0 0 0 0 0 0 0 0 0 0 0 0 0 0
0 0 0 0 0 0 0 0 0 0 0 0 0 0 0 0 0 0 0 0 0 0 0 0 0 0 0 0 0 0 0 0 0 0 0 0 0 0 0 0 0 0 0
0 0 0 0 0 0 0 0 0 0 0 0 0 0 0 0 0 0 0 0 0 0 0 0 0 0 0 0 0 0 0 0 0 0 0 0 0 0 0 0 0 0 0
0 0 0 0 0 0 0 0 0 0 0 0 0 0 0 0 0 0 0 0 0 0 0 0 0 0 0 0 0 0 0 0 0 0 0 0 0 0 0 0 0 0 0
0 0 0 0 0 0 0 0 0 0 0 0 0 0 0 0 0 0 0 0 0 0 0 0 0 0 0 0 0 0 0 0 0 0 0 0 0 0 0 0 0 0 0
0 0 0 0 0 0 0 0 0 0 0 0 0 0 0 0 0 0 0 0 0 0 0 0 0 0 0 0 0 0 0 0 0 0 0 0 0 0 0 0 0 0 0
0 0 0 0 0 0 0 0 0 0 0 0 0 0 0 0 0 0 0 0 0 0 0 0 0 0 0 0 0 0 0 0 0 0 0 0 0 0 0 0 0 0 0
0 0 0 0 0 0 0 0 0 0 0 0 0 0 0 0 0 0 0 0 0 0 0 0 0 0 0 0 0 0 0 0 0 0 0 0 0 0 0 0 0 0 0
0 0 0 0 0 0 0 0 0 0 0 0 0 0 0 0 0 0 0 0 0 0 0 0 0 0 0 0 0 0 0 0 0 0 0 0 0 0 0 0 0 0 0
0 0 0 0 0 0 0 0 0 0 0 0 0 0 0 0 0 0 0 0 0 0 0 0 0 0 0 0 0 0 0 0 0 0 0 0 0 0 0 0 0 0 0
0 0 0 0 0 0 0 0 0 0 0 0 0 0 0 0 0 0 0 0 0 0 0 0 0 0 0 0 0 0 0 0 0 0 0 0 0 0 0 0 0 0 0
Height
5666 5670 5674 5678 5682 5685 5688 5691 5694 5697 5700 5703 5706 5709 5712 5715 5718 5721 5724 5726 5728 5730 5731 5733 5734 5735 5736 5737 5737 5737 5737 5737 5737 5738 5738 5737 5736 5735 5734 5732 5731 5730 5728
5655 5660 5664 5668 5671 5675 5679 5682 5685 5688 5691 5694 5697 5700 5703 5706 5709 5711 5714 5716 5718 5720 5721 5723 5724 5725 5726 5726 5727 5727 5727 5727 5727 5727 5727 5726 5725 5724 5723 5721 5720 5718 5717
5645 5649 5654 5658 5662 5666 5669 5672 5675 5679 5681 5684 5687 5691 5693 5696 5698 5701 5703 5706 5708 5709 5711 5712 5713 5714 5715 5716 5716 5716 5716 5716 5716 5716 5716 5715 5714 5713 5712 5711 5709 5707 5705
5634 5639 5643 5648 5652 5655 5659 5662 5666 5669 5672 5675 5678 5681 5684 5686 5689 5691 5693 5695 5697 5699 5700 5702 5703 5704 5704 5705 5705 5705 5705 5705 5705 5706 5705 5704 5703 5702 5701 5700 5699 5696 5695
5624 5628 5633 5637 5641 5645 5649 5652 5656 5659 5662 5665 5667 5670 5673 5676 5678 5680 5682 5684 5686 5688 5689 5691 5692 5693 5693 5694 5694 5694 5694 5694 5694 5694 5694 5694 5692 5691 5690 5689 5687 5685 5683
5613 5618 5622 5626 5630 5634 5638 5642 5645 5648 5651 5654 5657 5660 5662 5665 5667 5669 5671 5673 5675 5677 5678 5679 5680 5681 5682 5682 5682 5683 5683 5683 5683 5683 5682 5682 5681 5680 5678 5677 5675 5674 5673
5603 5607 5611 5615 5619 5623 5627 5631 5634 5638 5641 5643 5646 5649 5651 5653 5655 5657 5659 5661 5663 5665 5666 5667 5668 5669 5670 5670 5671 5671 5671 5671 5671 5671 5671 5670 5669 5668 5667 5665 5663 5661 5659
5592 5596 5600 5604 5608 5612 5616 5619 5623 5626 5629 5632 5635 5637 5640 5642 5644 5645 5647 5649 5651 5652 5654 5655 5656 5657 5657 5658 5658 5659 5659 5659 5659 5659 5659 5658 5656 5655 5654 5652 5651 5649 5647
5581 5585 5589 5593 5597 5601 5604 5608 5611 5614 5617 5620 5623 5626 5628 5630 5632 5634 5636 5637 5639 5641 5642 5643 5644 5645 5646 5646 5646 5647 5647 5647 5646 5646 5646 5645 5644 5642 5641 5639 5638 5636 5634
5570 5574 5578 5582 5585 5589 5593 5596 5599 5602 5606 5609 5612 5614 5617 5619 5621 5623 5624 5626 5628 5630 5631 5631 5632 5633 5633 5633 5633 5633 5634 5634 5634 5633 5633 5632 5630 5629 5628 5626 5624 5622 5620
5560 5563 5567 5571 5574 5578 5581 5585 5588 5591 5594 5597 5600 5603 5605 5608 5609 5611 5613 5615 5616 5618 5619 5619 5620 5620 5621 5621 5621 5621 5621 5621 5620 5620 5619 5618 5617 5616 5614 5612 5610 5609 5607
5550 5553 5556 5560 5563 5567 5570 5573 5576 5580 5583 5586 5589 5591 5594 5596 5598 5600 5602 5603 5605 5606 5607 5608 5608 5609 5609 5609 5609 5609 5608 5608 5607 5607 5606 5605 5604 5603 5601 5599 5597 5595 5593
5540 5543 5546 5549 5552 5555 5559 5562 5565 5568 5571 5574 5577 5580 5583 5585 5587 5589 5590 5592 5593 5594 5595 5596 5596 5597 5597 5597 5597 5597 5596 5596 5595 5595 5594 5593 5591 5590 5588 5587 5584 5582 5579
5530 5533 5536 5539 5542 5545 5548 5551 5554 5557 5560 5563 5566 5569 5571 5574 5576 5577 5579 5580 5582 5583 5584 5584 5585 5585 5586 5586 5585 5585 5584 5584 5583 5582 5581 5580 5579 5577 5576 5574 5572 5569 5567
5520 5523 5526 5529 5531 5534 5537 5540 5543 5547 5549 5552 5555 5557 5560 5562 5564 5566 5567 5569 5570 5571 5572 5573 5574 5574 5574 5574 5574 5573 5572 5572 5571 5570 5569 5567 5566 5564 5562 5560 5558 5556 5553
5511 5514 5516 5519 5521 5524 5527 5530 5532 5535 5538 5540 5543 5545 5548 5550 5552 5554 5556 5557 5558 5559 5561 5562 5562 5562 5562 5562 5562 5561 5560 5559 5558 5557 5556 5555 5553 5551 5549 5547 5545 5542 5540
5501 5504 5506 5509 5512 5515 5517 5520 5522 5525 5526 5529 5532 5534 5536 5539 5541 5543 5544 5545 5547 5548 5549 5550 5550 5550 5550 5550 5550 5549 5548 5547 5546 5544 5543 5542 5540 5538 5536 5534 5532 5529 5526
5491 5494 5497 5500 5502 5505 5507 5509 5512 5514 5516 5518 5521 5523 5525 5527 5529 5531 5533 5534 5535 5536 5537 5538 5538 5538 5538 5538 5537 5537 5536 5535 5533 5532 5530 5529 5527 5525 5523 5521 5518 5515 5513
5482 5485 5488 5490 5493 5495 5497 5499 5501 5504 5506 5508 5510 5512 5514 5516 5518 5520 5521 5523 5524 5525 5525 5525 5526 5526 5526 5526 5525 5524 5523 5522 5521 5519 5517 5516 5514 5512 5510 5507 5505 5502 5499
5474 5476 5479 5481 5483 5485 5487 5489 5491 5493 5495 5497 5500 5501 5503 5505 5507 5508 5510 5511 5512 5513 5513 5513 5513 5513 5514 5513 5512 5512 5511 5509 5508 5506 5504 5502 5500 5498 5496 5494 5491 5488 5486
5466 5468 5470 5472 5474 5476 5478 5479 5481 5483 5485 5487 5488 5490 5492 5494 5495 5497 5498 5499 5500 5501 5501 5501 5501 5501 5501 5500 5499 5499 5497 5496 5494 5493 5491 5489 5487 5484 5482 5480 5477 5475 5472
5457 5459 5461 5463 5465 5466 5468 5470 5471 5472 5474 5476 5477 5479 5481 5482 5484 5485 5486 5487 5487 5488 5488 5489 5489 5488 5488 5487 5487 5486 5485 5483 5481 5479 5477 5475 5473 5471 5468 5466 5463 5461 5459
5449 5451 5452 5454 5455 5457 5458 5459 5461 5462 5463 5465 5466 5468 5469 5470 5472 5473 5474 5475 5475 5476 5476 5477 5477 5476 5476 5475 5474 5473 5472 5470 5468 5466 5464 5462 5460 5457 5455 5453 5450 5448 5446
5440 5442 5443 5445 5446 5447 5448 5449 5450 5451 5453 5454 5455 5457 5458 5459 5460 5461 5462 5463 5464 5464 5465 5465 5465 5464 5463 5462 5461 5460 5459 5457 5455 5453 5451 5449 5447 5444 5442 5440 5438 5436 5433
5432 5434 5435 5436 5437 5438 5439 5440 5440 5441 5442 5444 5445 5446 5448 5449 5450 5451 5452 5452 5453 5453 5453 5453 5453 5452 5452 5450 5449 5448 5446 5444 5443 5441 5439 5437 5435 5433 5430 5428 5426 5424 5421
5424 5425 5426 5427 5428 5428 5429 5430 5431 5432 5433 5434 5435 5436 5437 5438 5439 5440 5441 5441 5442 5442 5442 5441 5441 5440 5439 5438 5437 5435 5434 5432 5430 5428 5427 5425 5423 5421 5419 5417 5415 5412 5410
Wind_Speed
43 43 42 41 41 40 40 40 40 40 40 40 41 41 41 41 41 41 41 41 41 41 40 40 41 41 42 43 44 43 43 44 44 43 43 43 44 44 44 43 43 44 44
43 43 43 43 42 41 40 40 40 40 40 40 40 41 42 42 43 42 42 42 42 42 42 41 41 42 43 43 43 43 43 43 43 43 43 43 44 44 44 44 44 43 44
44 44 43 43 43 42 42 41 41 41 41 41 41 41 41 42 43 44 44 43 43 42 42 42 42 42 42 43 44 44 43 43 44 44 44 43 44 43 43 43 43 43 44
44 44 44 44 43 43 43 42 42 42 42 42 42 42 42 42 42 43 44 44 43 43 43 42 43 43 43 44 43 43 43 44 44 44 44 44 44 43 43 43 43 44 45
44 44 44 44 44 44 43 43 42 42 42 42 43 43 43 43 43 44 44 44 44 44 44 45 44 44 44 44 44 44 44 44 45 45 44 44 44 44 44 44 45 46 46
43 44 43 44 44 44 44 44 44 43 42 42 43 43 44 44 45 45 45 45 45 45 44 45 45 45 45 44 44 44 44 43 44 44 44 44 44 44 44 44 45 46 47
43 43 43 44 44 45 45 45 45 45 44 44 43 44 44 44 44 45 46 46 47 46 46 46 45 45 45 44 44 44 44 44 44 45 45 45 44 44 45 45 46 47 47
44 44 44 43 43 44 45 46 46 46 46 46 45 44 45 45 45 45 46 46 46 46 46 46 46 45 45 44 44 45 45 45 46 46 46 45 45 45 45 45 46 47 47
43 43 43 44 44 44 44 45 45 46 46 46 45 45 44 45 45 45 45 45 44 43 43 44 44 45 45 45 45 45 45 45 45 46 46 46 46 46 46 47 48 48 48
41 42 42 43 44 45 45 45 45 45 45 45 46 46 45 45 45 45 44 44 43 43 42 42 43 43 44 45 45 45 45 45 46 46 47 47 48 48 48 48 48 48 48
40 40 41 43 44 45 45 45 45 45 44 44 45 45 45 45 45 45 44 44 43 43 42 43 43 43 43 44 44 44 44 44 45 46 46 47 48 49 48 48 49 49 49
38 39 39 40 41 43 43 43 43 43 43 43 44 44 44 44 44 43 43 43 43 43 43 43 42 42 42 43 43 44 44 44 45 45 46 47 47 47 47 48 48 49 49
36 37 38 39 39 40 41 41 41 41 42 42 43 43 43 43 43 43 43 44 44 43 42 42 41 41 42 42 43 44 45 45 45 45 46 46 47 47 48 48 49 49 50
35 35 37 38 38 39 39 40 40 40 41 42 42 42 43 43 43 43 43 43 43 42 42 42 42 41 41 41 42 43 44 45 45 45 46 46 47 47 48 48 49 49 50
34 34 35 36 37 37 38 38 39 40 41 41 41 41 41 42 42 42 42 42 42 41 41 41 41 42 41 42 42 43 43 44 45 45 46 46 46 47 47 48 48 49 50
35 34 34 35 35 36 37 38 38 39 40 41 41 41 41 41 42 42 41 41 41 41 41 42 42 42 42 42 43 43 43 44 45 46 46 46 46 47 47 47 47 48 49
34 34 34 34 35 36 36 37 38 39 39 40 40 40 40 40 41 41 40 40 40 40 41 42 42 42 42 42 42 42 42 43 44 45 46 46 46 46 46 46 47 48 48
32 33 33 34 33 34 34 36 37 37 37 38 38 39 39 39 39 39 39 39 39 40 41 41 41 42 42 42 42 42 43 43 44 45 45 45 45 45 46 46 47 47 47
31 32 33 34 34 34 34 34 35 36 36 36 37 37 38 38 38 38 39 39 39 40 40 41 41 42 42 42 42 43 43 43 44 45 45 46 46 46 46 46 46 46 46
30 31 32 32 33 33 34 34 34 35 35 36 36 37 37 37 37 38 39 40 40 40 41 41 41 41 42 42 43 43 44 44 44 45 45 46 47 47 47 47 47 47 47
29 30 31 32 32 33 33 34 34 34 35 35 36 37 37 37 38 38 39 39 40 41 41 41 41 42 42 43 43 43 43 44 44 45 45 46 46 47 47 47 47 46 46
29 29 30 31 32 33 34 34 34 35 35 36 36 37 38 38 39 39 39 40 40 40 40 40 40 41 42 42 42 42 43 44 44 44 45 45 45 45 46 46 45 45 45
29 30 30 31 31 32 33 34 34 35 36 36 37 38 38 38 38 38 38 38 39 38 38 38 39 39 40 40 41 41 42 43 43 43 43 43 44 44 44 44 43 43 43
28 29 29 30 30 31 31 32 33 34 34 35 36 36 36 36 36 36 36 36 37 37 38 38 38 39 39 39 40 40 41 41 42 42 42 42 42 42 42 41 41 42 42
27 28 28 29 30 30 30 31 31 32 32 33 33 34 34 34 34 35 35 36 36 36 37 38 38 38 39 39 39 39 40 41 41 41 41 40 40 39 39 40 40 41 41
27 28 29 29 29 29 30 29 30 30 31 31 32 33 33 33 34 34 34 35 36 36 37 37 38 38 39 39 40 40 40 40 41 40 40 39 38 38 38 39 39 39 39
Wind_Direction
238 238 238 239 240 242 242 244 245 244 244 244 244 244 244 247 249 250 251 252 254 256 257 257 258 259 261 264 266 268 268 269 269 270 271 273 275 275 276 277 278 281 281
238 238 239 240 240 241 242 243 243 243 243 244 245 246 246 247 248 251 252 253 256 257 257 258 259 260 261 264 266 268 268 269 269 270 272 273 274 275 276 277 278 279 281
238 238 238 240 240 240 241 243 243 243 244 245 245 246 247 248 250 251 253 254 256 257 257 258 260 260 262 263 265 267 268 268 269 270 272 275 275 275 276 277 278 280 280
237 238 239 239 240 240 241 242 243 244 245 245 245 246 248 249 251 252 253 255 255 256 257 258 260 262 263 265 266 268 269 269 270 271 272 274 275 275 276 277 278 280 281
237 237 238 239 239 240 241 242 243 244 245 246 247 247 248 250 252 253 254 256 256 257 258 258 260 261 263 264 265 267 268 269 270 271 272 274 274 275 276 278 279 280 281
238 238 239 239 239 240 241 242 243 244 245 247 249 249 250 251 253 254 255 256 256 258 258 259 260 261 263 264 265 267 268 270 271 271 273 274 275 275 276 277 279 280 281
239 239 239 239 240 241 242 242 243 245 246 248 249 251 251 252 254 254 255 256 257 258 259 259 260 262 263 264 265 266 268 269 271 272 272 274 275 275 276 278 280 281 282
240 240 240 240 241 241 242 243 244 245 246 248 250 251 251 252 254 255 256 256 257 258 259 260 261 263 264 264 265 267 268 269 270 271 272 273 274 275 278 279 280 281 282
241 240 240 240 241 242 242 243 245 246 247 248 249 251 251 252 253 255 256 257 258 259 261 261 262 263 264 265 266 266 267 268 269 271 272 273 275 276 279 280 281 281 282
242 241 241 241 242 242 243 244 244 246 247 247 248 250 252 252 253 255 257 258 258 260 261 262 262 263 264 265 265 266 267 269 269 271 272 274 275 277 279 280 281 281 282
242 243 243 243 243 243 243 244 244 245 246 247 248 250 251 252 254 255 257 259 259 260 261 261 262 263 264 265 266 267 268 270 271 272 273 275 276 277 279 281 282 282 282
243 243 243 244 244 244 244 244 244 245 246 247 248 249 250 252 253 255 257 258 259 260 261 262 262 263 264 265 267 268 269 270 271 272 273 274 275 277 279 280 281 282 283
241 242 243 244 244 245 244 243 244 245 246 247 248 249 250 251 253 255 257 259 260 261 262 263 264 264 265 267 268 269 270 270 271 272 274 274 276 277 279 280 281 282 283
240 240 241 243 243 244 244 244 245 246 248 248 249 250 250 252 254 255 256 258 259 261 262 264 265 265 266 267 268 269 270 271 272 273 274 276 277 279 280 280 280 281 282
241 242 243 242 243 244 244 245 246 247 248 248 249 250 251 252 254 254 256 257 258 260 262 263 264 265 266 268 269 270 272 273 273 274 275 277 278 279 280 280 280 281 283
243 244 245 244 243 244 244 245 246 248 249 249 249 251 252 253 253 254 255 257 258 260 261 262 264 265 267 268 270 272 274 275 275 275 276 277 278 279 280 281 282 283 284
242 244 245 245 245 245 245 245 246 248 249 249 250 251 252 253 252 253 255 257 259 261 262 263 265 266 267 269 270 272 274 275 276 276 277 277 278 279 281 281 282 283 284
242 244 244 245 245 246 246 246 246 247 249 249 250 251 252 253 253 254 255 257 259 261 263 264 265 266 267 269 271 272 274 275 276 277 278 279 279 280 281 282 283 284 285
244 244 244 245 245 246 247 248 248 249 249 249 250 252 253 254 254 255 256 257 259 261 263 264 265 266 267 269 271 273 275 276 277 278 278 279 280 281 282 283 284 286 286
244 243 243 244 245 247 249 249 250 250 251 251 252 253 253 255 256 257 258 259 260 262 263 265 265 266 267 269 271 273 275 276 277 278 279 280 280 281 283 284 285 285 285
245 244 244 244 246 248 250 252 253 253 253 253 254 254 255 256 257 258 260 262 263 263 264 265 266 267 269 270 272 273 275 277 278 279 280 281 282 282 283 284 284 284 284
246 247 248 248 249 251 252 253 255 255 255 255 256 256 257 258 258 259 261 263 264 265 266 267 268 269 271 272 273 274 276 277 278 280 281 282 282 283 283 283 283 283 283
248 249 249 250 252 254 255 256 256 256 257 257 257 257 257 258 259 260 261 261 262 264 266 268 270 271 272 273 274 275 277 278 279 280 281 282 283 283 283 283 283 284 284
249 250 251 253 255 256 257 257 258 257 257 257 257 258 258 259 260 260 261 262 263 264 266 268 270 272 273 274 275 277 278 278 280 281 282 282 283 283 283 283 283 284 285
251 252 254 255 256 256 257 257 257 257 257 256 257 258 258 258 259 259 260 261 263 265 267 269 271 273 274 275 277 278 278 279 280 281 282 282 282 283 283 283 284 285 285
253 254 256 256 256 256 256 256 257 257 257 257 257 258 258 258 260 261 262 264 265 266 268 269 271 273 275 276 277 278 279 279 280 281 281 282 282 283 284 284 285 285 285